CAPE
30 52 56 61 85 116 149 161 153 122 81 39 11 27 57 59 56 7 0 0 6 34 219 0 0 2 11 56 19 41 23 1 0 0 0 0 0 0 0 0 0 5 126 437 524
36 38 56 83 99 150 218 171 181 156 107 47 24 21 45 54 28 1 0 0 6 73 52 0 0 21 92 175 3 9 49 9 0 0 0 0 0 0 0 3 62 815 710 627 440
42 40 69 85 107 124 200 231 184 181 125 79 69 50 49 50 20 0 8 53 23 23 55 0 0 50 203 78 8 1 0 0 0 0 0 0 0 0 0 0 9 651 829 571 381
35 32 42 51 71 121 146 187 212 185 157 103 114 117 92 21 0 11 1 73 69 12 46 33 0 41 166 70 7 0 0 0 0 0 0 0 0 0 0 0 0 122 449 395 319
31 42 34 35 59 116 112 184 149 153 156 120 89 78 22 0 0 0 14 0 0 8 11 44 0 8 55 20 33 4 0 0 9 24 1 0 0 0 0 0 0 12 127 338 280
29 43 30 31 31 78 115 115 72 82 115 70 109 124 15 0 0 0 0 8 0 0 3 42 12 0 48 55 53 6 26 22 0 0 11 8 0 0 0 0 0 0 0 0 66
24 34 24 16 12 43 57 62 80 104 142 202 234 35 32 0 0 0 0 0 30 3 61 36 8 19 5 34 29 13 69 37 0 0 0 0 0 0 0 0 0 0 0 0 0
21 35 31 13 12 3 2 1 1 54 119 181 244 139 0 2 0 0 0 0 39 87 82 84 39 18 2 10 18 34 39 36 0 0 0 0 0 0 0 0 0 0 0 0 0
21 29 25 13 14 0 3 0 0 34 107 220 123 32 0 16 50 3 0 0 65 47 74 103 6 1 2 11 26 26 7 0 0 0 0 0 0 0 0 0 0 0 0 0 0
7 11 21 17 4 16 64 36 17 15 53 124 121 7 0 0 0 7 0 64 32 39 100 83 70 2 5 4 5 0 0 0 0 0 0 0 0 0 0 0 0 0 0 0 0
17 9 6 11 8 15 2 0 0 0 0 0 0 0 0 0 0 115 62 2 0 6 19 59 25 0 0 0 0 0 0 0 0 0 0 0 0 0 0 0 0 0 0 0 0
17 7 8 3 8 11 0 0 0 0 0 0 0 5 0 0 0 69 2 0 1 10 14 45 0 0 0 0 0 0 0 0 0 0 0 0 0 0 0 0 0 0 0 0 0
15 6 8 4 1 0 0 0 0 0 0 0 4 17 5 1 3 50 6 22 5 6 3 0 0 0 0 1 0 0 0 0 0 0 0 0 0 0 0 0 0 0 0 0 0
12 13 7 5 0 0 0 0 0 0 1 6 14 6 10 0 8 13 2 0 2 5 1 22 0 0 0 0 0 0 0 0 0 0 0 0 0 0 0 0 0 0 0 0 0
6 10 6 6 0 2 0 0 0 0 0 7 9 0 7 5 17 0 0 0 6 5 7 3 0 0 0 0 0 0 0 0 0 0 0 0 0 0 0 0 0 0 0 0 0
3 7 1 0 0 2 0 0 2 0 0 1 0 10 3 3 1 0 53 11 17 24 1 1 0 0 1 0 11 3 0 0 0 0 0 0 0 0 0 0 0 0 0 0 0
0 2 1 0 0 0 0 0 0 0 0 9 5 4 12 5 11 10 1 1 21 0 0 1 1 0 0 0 9 5 0 0 3 0 0 0 0 0 0 0 0 0 0 0 0
0 0 0 0 0 0 0 0 0 0 0 1 2 8 2 14 18 12 10 7 0 0 0 0 41 1 0 0 12 15 0 0 0 0 0 0 0 0 0 0 0 0 0 0 0
0 0 0 0 0 0 0 0 0 0 0 0 0 0 8 9 9 20 0 0 0 0 0 0 2 2 0 0 0 1 1 0 0 0 0 0 0 0 0 0 0 0 0 0 0
0 0 0 0 0 0 0 0 0 0 0 0 0 0 1 0 3 0 0 0 0 0 0 0 2 1 1 1 0 0 0 0 0 0 0 0 0 0 0 0 0 0 0 0 0
0 0 0 0 0 0 0 0 0 0 0 0 0 0 0 0 0 0 0 0 0 0 0 0 0 6 11 8 8 3 0 0 0 0 0 0 0 0 0 0 0 0 0 0 0
0 0 0 0 0 0 0 0 0 0 0 0 0 0 0 0 0 0 0 0 0 0 0 0 0 7 3 2 0 0 0 0 0 0 0 0 0 0 0 0 0 0 0 0 0
0 0 0 0 0 0 0 0 0 0 0 0 0 0 0 0 0 0 0 0 0 0 0 0 0 0 0 0 0 3 0 0 0 0 0 0 0 0 0 0 0 0 0 0 0
0 0 0 0 0 0 0 0 0 0 0 0 0 0 0 0 0 0 0 0 0 0 0 0 0 0 0 0 0 0 0 0 0 0 0 0 0 0 0 0 0 0 0 0 0
0 0 0 0 0 0 0 0 3 2 0 0 0 0 0 0 0 0 0 0 0 0 0 0 0 0 0 0 0 0 0 0 0 0 0 0 0 0 0 0 0 0 0 0 0
0 0 0 0 0 0 0 0 10 5 0 0 0 0 0 0 0 0 0 0 0 0 0 0 0 0 0 0 0 0 0 0 0 0 0 0 0 0 0 0 0 0 0 0 0
0 0 0 0 0 0 0 0 0 5 2 0 0 0 0 0 0 0 0 0 0 0 0 0 0 0 0 0 0 0 0 0 0 0 0 0 0 0 0 0 0 0 0 0 0
CIN
-0 -0 -0 -0 -0 -1 -0 -0 -0 -0 -0 -0 -0 -0 -1 -0 -5 -1 -0 -0 -33 -29 -6 -0 -0 -38 -170 -82 -129 -142 -42 -0 -0 -0 -0 -0 -0 -0 -0 -0 -0 -92 -196 -157 -160
-0 -0 -0 -0 -0 -0 -0 -1 -0 -0 -0 -2 -1 -0 -0 -2 -1 -1 -0 -0 -52 -16 -25 -0 -0 -98 -33 -25 -87 -75 -2 -0 -0 -0 -0 -0 -0 -0 -0 -37 -177 -133 -157 -153 -154
-0 -0 -0 -0 -0 -0 -0 -1 -3 -0 -2 -0 -0 -0 -0 -6 -0 -0 -53 -26 -34 -45 -13 -0 -0 -28 -4 -34 -63 -5 -0 -0 -0 -0 -0 -0 -0 -0 -0 -0 -23 -112 -115 -151 -168
-0 -0 -0 -0 -0 -0 -0 -0 -4 -0 -0 -0 -0 -0 -4 -8 -0 -2 -0 -12 -0 -48 -9 -12 -0 -9 -4 -13 -10 -0 -0 -0 -0 -5 -45 -0 -0 -0 -0 -0 -0 -198 -209 -197 -176
-0 -0 -0 -0 -3 -0 -0 -0 -6 -3 -0 -5 -3 -4 -6 -0 -0 -0 -22 -0 -0 -24 -2 -3 -0 -1 -12 -39 -13 -16 -0 -0 -31 -55 -19 -2 -0 -0 -0 -0 -0 -288 -212 -171 -164
-0 -0 -0 -0 -0 -0 -0 -0 -6 -4 -1 -6 -7 -9 -16 -0 -0 -0 -0 -18 -0 -0 -16 -11 -2 -1 -13 -9 -6 -21 -31 -15 -8 -0 -33 -26 -0 -0 -0 -0 -0 -0 -0 -0 -212
-0 -0 -0 -0 -0 -0 -2 -6 -2 -9 -5 -0 -0 -37 -10 -0 -0 -0 -0 -0 -17 -5 -1 -16 -19 -8 -32 -14 -26 -30 -7 -19 -0 -0 -0 -0 -0 -0 -0 -0 -0 -0 -0 -0 -0
-0 -0 -0 -0 -0 -0 -0 -0 -11 -26 -20 -7 -3 -14 -0 -48 -0 -0 -0 -0 -19 -53 -9 -25 -64 -19 -1 -40 -45 -25 -21 -8 -0 -0 -0 -0 -0 -0 -0 -0 -0 -0 -0 -0 -0
-0 -0 -0 -0 -0 -0 -0 -0 -0 -43 -15 -0 -26 -56 -0 -53 -21 -10 -0 -0 -4 -11 -22 -6 -27 -3 -16 -18 -18 -30 -30 -0 -0 -0 -0 -0 -0 -0 -0 -0 -0 -0 -0 -0 -0
-0 -0 -0 -0 -3 -0 -0 -13 -32 -2 -21 -3 -11 -99 -0 -2 -0 -31 -0 -12 -7 -0 -0 -1 -6 -7 -17 -4 -0 -0 -0 -0 -0 -0 -0 -0 -0 -0 -0 -0 -0 -0 -0 -0 -0
-0 -0 -0 -0 -5 -7 -3 -0 -0 -0 -0 -0 -0 -0 -0 -0 -0 -16 -31 -24 -0 -1 -0 -3 -0 -0 -0 -0 -0 -0 -0 -0 -0 -0 -0 -0 -0 -0 -0 -0 -0 -0 -0 -0 -0
-0 -0 -0 -0 -0 -5 -0 -0 -0 -0 -0 -0 -2 -8 -8 -0 -0 -10 -16 -0 -0 -0 -0 -9 -0 -0 -0 -8 -0 -0 -0 -0 -0 -0 -0 -0 -0 -0 -0 -0 -0 -0 -0 -0 -0
-0 -0 -0 -0 -1 -0 -0 -0 -0 -0 -0 -0 -2 -14 -28 -2 -1 -4 -27 -7 -0 -0 -0 -0 -0 -0 -0 -4 -5 -0 -0 -0 -0 -0 -0 -0 -0 -0 -0 -0 -0 -0 -0 -0 -0
-0 -0 -0 -0 -0 -0 -0 -0 -0 -0 -0 -0 -0 -0 -2 -0 -2 -13 -3 -0 -0 -0 -0 -3 -0 -0 -0 -0 -0 -0 -0 -0 -0 -0 -0 -0 -0 -0 -0 -0 -0 -0 -0 -0 -0
-0 -0 -0 -0 -0 -17 -2 -0 -0 -0 -0 -0 -0 -0 -3 -0 -0 -8 -1 -0 -0 -0 -0 -0 -0 -0 -0 -0 -0 -0 -0 -0 -0 -0 -0 -0 -0 -0 -0 -0 -0 -0 -0 -0 -0
-0 -0 -0 -0 -0 -21 -8 -0 -5 -0 -0 -0 -0 -0 -0 -0 -0 -0 -2 -4 -5 -0 -1 -0 -0 -0 -11 -0 -32 -98 -0 -0 -0 -0 -1 -0 -0 -0 -0 -0 -0 -0 -0 -0 -0
-0 -0 -0 -0 -0 -0 -0 -0 -0 -0 -0 -1 -0 -0 -0 -0 -0 -0 -0 -0 -2 -0 -0 -0 -0 -0 -0 -4 -41 -54 -0 -0 -11 -9 -0 -0 -0 -0 -0 -0 -0 -0 -0 -0 -0
-0 -0 -0 -0 -0 -0 -0 -0 -0 -0 -0 -0 -0 -0 -0 -0 -0 -0 -0 -0 -0 -0 -0 -2 -1 -0 -0 -0 -15 -38 -0 -0 -0 -0 -0 -0 -0 -0 -0 -0 -0 -0 -0 -0 -0
-0 -0 -0 -0 -0 -0 -0 -0 -0 -0 -0 -0 -0 -0 -0 -0 -1 -0 -0 -0 -0 -0 -0 -0 -0 -0 -0 -0 -0 -30 -33 -0 -0 -0 -0 -0 -0 -0 -0 -0 -0 -0 -0 -0 -0
-0 -0 -0 -0 -0 -0 -0 -0 -0 -0 -0 -0 -3 -0 -0 -0 -1 -0 -0 -0 -0 -0 -0 -0 -0 -0 -0 -1 -0 -0 -0 -0 -0 -0 -0 -0 -0 -0 -0 -0 -0 -0 -0 -0 -0
-0 -0 -0 -0 -0 -0 -0 -0 -0 -0 -0 -0 -0 -0 -0 -0 -2 -0 -0 -0 -0 -0 -0 -0 -0 -0 -0 -0 -0 -0 -0 -0 -0 -0 -0 -0 -0 -0 -0 -0 -0 -0 -0 -0 -0
-0 -0 -0 -0 -0 -0 -0 -0 -0 -0 -0 -0 -0 -0 -0 -0 -0 -0 -0 -0 -0 -0 -0 -0 -0 -0 -0 -1 -0 -0 -0 -0 -0 -0 -0 -0 -0 -0 -0 -0 -0 -0 -0 -0 -0
-0 -0 -0 -0 -0 -0 -0 -0 -0 -0 -0 -0 -0 -0 -0 -0 -0 -0 -0 -0 -0 -0 -0 -0 -0 -0 -0 -0 -0 -0 -0 -0 -0 -0 -0 -0 -0 -0 -0 -0 -0 -0 -0 -0 -0
-0 -0 -0 -0 -0 -10 -0 -0 -0 -0 -0 -0 -0 -0 -0 -0 -0 -0 -0 -0 -0 -0 -0 -0 -0 -0 -0 -0 -0 -0 -0 -0 -0 -0 -0 -0 -0 -0 -0 -0 -0 -0 -0 -0 -0
-0 -0 -0 -0 -0 -0 -0 -7 -10 -3 -0 -0 -0 -0 -0 -0 -0 -0 -0 -0 -0 -0 -0 -0 -0 -0 -0 -0 -0 -0 -0 -0 -0 -0 -0 -0 -0 -0 -0 -0 -0 -0 -0 -0 -0
-0 -0 -0 -0 -0 -0 -0 -0 -10 -24 -0 -0 -0 -0 -0 -0 -0 -0 -0 -0 -0 -0 -0 -0 -0 -0 -0 -0 -0 -0 -0 -0 -0 -0 -0 -0 -0 -0 -0 -0 -0 -0 -0 -0 -0
-0 -0 -1 -0 -0 -0 -0 -0 -0 -31 -21 -0 -0 -0 -0 -0 -0 -0 -0 -0 -0 -0 -0 -0 -0 -0 -0 -0 -0 -0 -0 -0 -0 -0 -0 -0 -0 -0 -0 -0 -0 -0 -0 -0 -0
Wind_Speed
18 19 19 18 19 16 13 11 10 11 11 10 10 9 9 8 6 4 6 7 10 11 8 5 4 2 2 3 5 2 5 10 13 10 1 13 9 4 5 5 4 5 4 8 8
18 19 20 20 17 17 16 14 9 8 9 9 9 9 8 6 3 9 8 12 16 15 4 6 5 5 2 3 4 5 6 17 22 19 6 12 10 10 3 3 6 6 6 6 5
21 20 22 23 21 17 18 16 10 9 6 7 8 7 6 2 3 6 19 21 17 14 9 5 5 4 2 3 4 6 19 18 10 1 7 7 13 7 2 2 4 11 8 4 6
21 22 24 24 22 18 15 14 9 6 5 5 6 7 5 2 6 3 12 18 14 16 11 4 7 7 6 8 8 9 9 15 18 7 2 5 16 10 5 2 7 10 11 5 8
21 22 23 24 22 17 10 10 5 4 3 3 4 1 3 2 8 9 15 17 17 17 16 13 6 13 7 6 12 3 10 7 7 12 12 14 15 14 5 6 1 11 7 9 6
21 21 22 23 21 15 9 4 4 3 1 1 2 6 3 5 5 5 6 13 9 18 17 14 9 9 6 7 12 7 3 13 2 6 8 14 14 9 4 2 5 11 9 7 8
20 20 20 20 18 15 10 6 4 4 4 4 5 2 2 9 1 7 8 10 3 13 15 11 6 12 5 2 3 1 14 4 14 5 7 9 13 9 4 5 2 3 6 7 7
19 20 18 17 15 12 9 5 2 1 3 3 2 1 5 4 3 3 1 7 6 6 10 12 5 10 1 3 4 6 6 8 11 7 7 8 8 6 6 5 6 2 1 3 5
19 19 20 16 15 12 10 6 4 2 2 2 2 3 5 8 4 3 7 4 4 2 1 2 5 4 3 3 4 2 6 7 7 12 5 7 3 5 2 8 8 7 6 5 6
17 18 18 17 14 15 15 9 4 3 2 2 1 1 3 1 3 3 2 4 6 4 6 5 5 4 4 6 16 21 8 5 12 12 7 6 5 3 1 6 9 7 7 6 5
19 17 16 15 14 15 8 3 4 3 2 3 2 2 2 4 2 2 3 6 6 7 9 9 10 21 20 9 2 10 6 8 3 7 5 7 3 10 6 1 6 7 6 6 4
20 18 18 14 14 14 3 3 3 2 3 4 7 4 2 3 3 1 3 5 3 3 2 7 16 9 9 9 3 12 6 6 1 4 7 6 13 8 8 5 6 8 7 7 3
20 19 19 15 14 4 3 1 1 1 2 5 6 3 2 4 0 3 1 8 2 2 1 10 8 10 9 7 6 3 10 5 4 3 2 4 7 6 7 4 6 6 5 5 7
21 21 19 12 2 2 2 2 0 2 2 0 1 0 1 1 1 3 3 5 3 2 0 1 9 12 8 7 4 2 6 6 6 5 5 4 6 7 9 9 8 8 7 7 6
22 21 14 5 3 1 4 2 1 1 3 5 1 2 2 1 2 2 1 3 6 4 3 3 14 15 12 8 5 4 4 8 6 6 4 1 0 7 3 9 11 9 9 7 7
25 18 7 2 2 4 5 2 2 4 7 2 2 0 2 3 3 2 6 3 5 8 6 6 4 5 2 3 3 2 6 8 5 3 1 6 7 6 7 8 11 4 7 9 9
26 16 4 1 3 3 3 3 4 7 4 5 2 3 6 5 3 3 3 1 4 6 4 6 4 2 2 6 2 1 7 3 2 3 6 3 4 11 6 5 8 9 9 9 9
24 11 3 3 2 2 2 4 10 1 1 2 3 5 3 3 1 8 8 4 4 11 5 5 6 2 3 3 3 4 4 6 6 4 4 1 9 9 5 9 7 12 12 9 8
14 3 1 3 5 4 1 6 8 5 3 3 4 1 3 2 1 4 3 1 4 3 7 6 2 0 2 2 1 4 2 3 6 3 4 5 7 7 3 3 9 10 8 9 8
1 1 3 2 4 4 4 2 3 5 2 1 2 1 3 3 2 2 2 2 3 2 2 5 6 2 4 2 3 3 2 2 3 4 4 5 5 6 3 8 8 9 9 7 6
2 2 3 1 3 4 4 4 5 6 5 3 2 1 1 3 4 2 2 2 2 3 2 5 5 4 6 7 6 6 5 2 3 5 4 2 7 5 12 13 15 12 9 8 8
2 4 2 2 4 1 1 3 1 3 4 4 3 3 2 2 4 4 3 2 3 5 4 3 4 5 4 3 7 1 5 5 5 4 1 3 8 4 7 7 8 8 8 6 6
2 1 2 2 3 3 3 3 1 2 2 2 2 2 2 2 4 3 3 1 2 4 7 5 2 4 2 3 2 4 4 3 4 4 6 6 7 5 4 7 6 8 7 7 7
3 4 5 2 2 4 5 4 3 1 4 3 3 2 3 4 5 3 2 2 3 2 2 4 3 5 7 5 6 5 8 7 6 4 4 6 4 3 4 9 7 7 8 8 8
4 2 2 3 3 5 3 4 3 2 2 2 4 2 2 1 3 3 2 2 3 2 2 4 4 3 2 3 3 3 7 9 9 11 8 5 6 7 11 11 10 8 6 8 7
4 3 4 3 4 3 2 5 3 5 3 2 1 6 2 3 3 6 5 3 4 0 2 3 2 3 3 1 2 2 6 9 9 5 5 3 6 6 6 2 5 8 8 8 7
2 2 0 4 3 1 3 4 5 8 2 1 1 3 1 1 1 3 2 3 3 7 3 2 5 3 3 1 2 7 11 12 8 6 9 10 7 2 5 7 8 8 9 8 7
Wind_Direction
341 337 332 330 329 319 304 289 288 285 286 294 296 291 286 293 288 251 233 231 228 257 312 140 116 125 345 138 112 75 161 220 226 238 137 348 2 349 330 93 63 24 120 146 132
342 339 337 335 330 319 300 287 266 264 273 284 288 297 300 306 254 247 225 231 251 259 299 172 166 130 143 167 152 133 205 205 226 226 29 316 311 320 8 44 33 59 31 98 101
343 341 338 334 328 315 303 295 268 264 260 280 283 288 295 305 284 236 226 233 242 244 233 180 126 132 200 117 172 178 209 225 235 215 39 293 291 282 284 40 204 158 162 143 134
346 347 341 334 326 315 310 297 268 255 266 275 277 288 266 193 229 152 219 198 264 233 221 214 148 163 195 175 202 169 201 191 222 114 130 294 292 271 321 160 224 172 152 142 152
348 354 347 343 340 330 311 309 205 250 257 312 310 322 140 239 249 309 324 316 298 197 207 202 166 185 192 161 195 178 186 182 182 178 220 241 266 265 327 293 170 114 131 147 167
351 357 353 356 358 2 348 20 120 133 112 85 90 136 157 235 245 348 354 317 248 183 198 193 183 191 178 181 179 185 237 198 57 210 197 176 247 275 174 212 80 117 140 158 178
353 354 357 2 13 28 41 70 102 120 130 126 146 167 210 247 113 317 357 304 318 185 197 195 204 186 163 164 184 200 196 99 197 210 224 174 203 237 181 99 117 123 151 153 149
350 351 1 354 2 9 9 3 358 104 149 157 158 137 246 252 216 274 17 295 19 32 219 196 206 198 208 270 89 166 126 152 218 194 227 171 224 222 216 170 206 235 268 273 274
349 348 349 352 347 350 344 332 300 237 206 180 102 161 264 299 100 335 151 255 71 114 131 223 139 192 122 179 99 255 148 170 177 200 175 184 207 242 226 174 222 208 237 244 278
348 345 343 342 338 333 329 305 254 324 258 148 210 262 300 336 302 343 234 90 71 301 130 183 159 145 163 177 185 187 180 161 183 195 186 199 217 216 249 193 217 227 239 256 276
345 341 342 335 334 333 345 20 30 338 358 215 248 278 350 314 286 25 142 101 60 285 155 171 149 191 190 173 135 144 124 164 202 171 144 207 189 258 262 210 236 237 225 239 267
344 340 333 328 331 332 32 78 135 192 323 292 259 231 48 351 1 85 336 96 108 262 145 165 195 152 120 154 126 159 148 184 113 213 174 199 233 211 260 245 205 214 213 218 200
342 336 327 322 324 55 99 302 244 225 351 339 349 16 338 350 184 131 267 127 115 359 15 182 152 129 151 167 168 177 189 157 148 94 50 116 293 223 246 223 249 235 212 183 181
338 333 321 321 352 134 123 244 123 80 267 81 232 353 253 40 116 93 360 26 49 210 88 87 143 144 148 179 135 131 186 180 165 128 189 163 259 244 213 237 226 216 188 184 158
337 331 316 297 291 162 161 156 189 109 51 349 38 347 131 280 114 172 135 47 171 157 235 173 145 152 164 176 131 208 183 183 162 136 123 238 303 268 124 228 229 207 208 189 165
338 333 319 42 138 254 126 98 117 48 19 338 281 49 355 25 89 226 168 229 182 173 90 55 58 68 99 85 80 358 91 52 59 79 274 211 168 265 205 206 213 174 194 174 165
335 327 259 138 196 221 106 82 38 68 234 355 321 186 162 194 205 115 120 197 176 128 103 54 23 47 67 90 23 114 94 61 134 207 217 158 172 246 250 230 197 170 170 160 157
332 326 188 200 162 112 60 70 62 313 312 312 311 79 49 4 76 180 157 163 47 107 106 132 154 341 358 115 182 207 129 148 192 204 216 221 227 242 247 254 187 164 160 150 155
340 345 341 273 153 90 122 55 183 206 218 331 310 282 85 173 157 42 27 69 117 141 117 133 120 51 10 87 79 234 163 193 103 33 61 223 288 310 50 158 148 156 145 156 165
27 15 284 130 112 94 80 144 239 183 228 206 338 235 100 306 167 167 107 30 100 110 153 156 109 234 126 90 294 246 191 157 347 136 256 272 270 238 204 175 156 154 156 164 161
63 71 273 344 58 42 112 191 235 211 201 231 330 10 48 152 178 71 28 42 152 165 31 135 88 156 140 200 177 191 193 172 123 143 194 271 262 235 202 182 171 163 169 171 174
28 50 317 31 14 97 30 172 274 302 147 256 217 278 52 61 65 82 126 16 338 130 141 167 124 157 190 198 223 221 197 160 140 229 211 154 273 320 223 164 157 159 174 173 165
46 273 354 71 31 351 311 312 179 297 272 296 276 56 334 48 105 116 136 171 44 125 168 182 146 97 60 352 325 221 215 149 119 75 212 148 262 347 135 144 172 155 154 159 157
78 39 330 354 34 354 12 280 285 322 291 288 292 352 35 40 37 127 91 21 37 92 35 121 127 151 181 208 139 194 198 196 147 149 186 221 268 304 186 156 166 171 170 166 170
29 31 27 335 357 344 320 301 327 298 259 307 325 310 314 78 62 98 103 7 8 18 82 95 128 95 356 103 94 200 190 181 199 212 201 226 212 213 201 183 182 183 161 158 176
77 39 340 281 301 304 22 1 10 343 2 335 337 330 333 138 196 197 146 182 199 59 73 18 150 101 352 166 132 259 235 210 214 218 249 214 261 224 200 179 161 183 171 180 188
344 313 154 293 322 325 31 337 331 339 315 14 318 356 39 192 353 336 179 159 184 152 133 96 128 94 261 15 7 307 222 203 212 204 194 209 219 199 164 191 186 183 181 188 187